Location: Fontevrault
(47.1823°N, 0.0493°E)
Time: 02:58:00
(UTC+00:00)

Cosmos 1953 - Visible Passes

Search period start: 23 October 2021 00:00
Search period end: 02 November 2021 00:00
Orbit: 539 x 555 km, 82.5° (Epoch: 22 October)

Date Brightness Start Highest point End Pass type
(mag) Time Alt. Az. Time Alt. Az. Time Alt. Az.
23 Oct 5.0 03:39:24 10° NNE 03:42:24 20° ENE 03:45:23 10° ESE visible
23 Oct 2.8 05:15:11 10° NNW 05:18:56 37° W 05:22:38 10° SSW visible
23 Oct 2.3 17:37:21 10° S 17:41:24 80° E 17:45:29 10° NNE visible
23 Oct 5.8 19:17:25 10° WNW 19:18:22 11° WNW 19:19:19 10° NW visible
24 Oct 4.8 03:34:06 10° NNE 03:37:12 21° ENE 03:40:16 10° ESE visible
24 Oct 2.9 05:10:00 10° NNW 05:13:42 35° W 05:17:21 10° SSW visible
24 Oct 2.3 17:32:08 10° S 17:36:11 85° E 17:40:16 10° N visible
24 Oct 5.9 19:13:02 10° WNW 19:13:11 10° WNW 19:13:21 10° WNW visible
25 Oct 4.7 03:28:49 10° NNE 03:32:00 22° ENE 03:35:10 10° ESE visible
25 Oct 2.9 05:04:49 10° NNW 05:08:27 33° W 05:12:03 10° SSW visible
25 Oct 2.4 17:26:55 10° S 17:30:57 89° W 17:35:02 10° N visible
26 Oct 4.7 03:27:39 22° E 03:27:39 22° E 03:30:02 10° SE visible
26 Oct 3.1 05:03:35 30° WSW 05:03:35 30° WSW 05:06:44 10° SSW visible
26 Oct 2.5 17:21:41 10° S 17:25:44 84° W 17:29:49 10° N visible
27 Oct 2.5 17:16:28 10° SSW 17:20:30 79° W 17:24:35 10° N visible
